This site uses a module created by best online poker sites.

BSB police reports ending January 12, 2018

"01/11/2018","00:09","218CR0000835","BUSINESS CHECK","BUSINESS CHECK","531 S MONTANA","",""
"01/11/2018","00:21","218CR0000836","UNWANTED PERSON","FAILURE TO DISPERSE","2000 DEWEY BLVD","ARREST(s) MADE",""
"01/11/2018","00:57","218CR0000837","WELFARE CHECK","WELFARE CHECK","FRONT AND HARRISON","",""
"01/11/2018","01:15","218CR0000838","SUSPICIOUS ACTIVITY","SUSPICIOUS ACTIVITY","3745 HARRISON AV","",""
"01/11/2018","01:20","218CR0000839","ALARM - BURGLARY","ALARM - BURGLARY","************","",""
"01/11/2018","01:30","218CR0000840","BUSINESS CHECK","BUSINESS CHECK","2711 HARRISON AVE","",""
"01/11/2018","01:37","218CR0000841","ATL","ATL","814 S COLORADO","",""
"01/11/2018","01:48","218CR0000842","SUSPICIOUS ACTIVITY","SUSPICIOUS ACTIVITY","GEORGE AND HARRISON","",""
"01/11/2018","02:12","218CR0000843","SUSPICIOUS ACTIVITY","SUSPICIOUS ACTIVITY","1900 BLK OREGON AVE","",""
"01/11/2018","02:31","218CR0000844","SUSPICIOUS ACTIVITY","SUSPICIOUS ACTIVITY","SILVERBOW BLVD AND CAROLINA","",""
"01/11/2018","07:04","218CR0000845","JUVENILE RUNAWAY","JUVENILE RUNAWAY","************","",""
"01/11/2018","08:04","218CR0000846","T/S","T/S @ HARRISON AND COBBAN","HARRISON AND COBBAN","",""
"01/11/2018","08:23","218CR0000847","CIVIL PAPER SERVICE","CIVIL PAPER SERVICE","3204 KENNEDY","",""
"01/11/2018","08:31","218CR0000848","CIVIL PAPER SERVICE","CIVIL PAPER SERVICE","1685 GRAND","",""
"01/11/2018","08:44","218CR0000849","CIVIL PAPER SERVICE","CIVIL PAPER SERVICE","701 W BROADWAY","",""
"01/11/2018","08:45","218CR0000850","DETENTION BUSINESS","DETENTION BUSINESS","************","",""
"01/11/2018","08:59","218CR0000851","SUICIDE ATTEMPT/THREAT","SUICIDE ATTEMPT/THREAT","************","",""
"01/11/2018","09:07","218CR0000852","UNWANTED PERSON","UNWANTED PERSON","************","",""
"01/11/2018","09:55","218CR0000853","DETENTION BUSINESS","DETENTION BUSINESS","************","",""
"01/11/2018","10:00","218CR0000854","DISTURBANCE","DISTURBANCE","524 W ALUMINUM","",""
"01/11/2018","10:01","218CR0000855","MEDICAL - EMERGENCY","MEDICAL - EMERGENCY","4015 S UTAH","",""
"01/11/2018","10:08","218CR0000856","MEDICAL - EMERGENCY","MEDICAL - EMERGENCY","2821 EDWARDS","",""
"01/11/2018","10:11","218CR0000857","DISTURBANCE","DISTURBANCE","2825 WALNUT","",""
"01/11/2018","10:51","218CR0000858","JUVENILE MISC","JUVENILE MISC","************","",""
"01/11/2018","10:55","218CR0000859","WELFARE CHECK","WELFARE CHECK","847 W BROADWAY APT B","",""
"01/11/2018","11:21","218CR0000860","ACCIDENT","ACCIDENT","1341 HARRISON/POORE ROTH","",""
"01/11/2018","11:47","218CR0000862","UNKNOWN PROBLEM","UNKNOWN PROBLEM","807 S COLORADO","",""
"01/11/2018","12:05","218CR0000863","THEFT","THEFT, SHOPLIFT","3901 HARRISON AVE","ARREST(s) MADE",""
"01/11/2018","12:11","218CR0000864","DISTURBANCE","DISTURBANCE","2825 WALNUT","",""
"01/11/2018","12:32","218CR0000865","ASSIST OTHER AGENCY","ASSIST OTHER AGENCY","MONTANA AND FRONT","",""
"01/11/2018","12:43","218CR0000866","MEDICAL - EMERGENCY","MEDICAL - EMERGENCY","225 N ALASKA","",""
"01/11/2018","13:08","218CR0000867","SEXUAL ASSAULT","SEXUAL ASSAULT","************","",""
"01/11/2018","13:20","218CR0000868","ALL OTHER","ALL OTHER","400 S CLARK ST","",""
"01/11/2018","13:29","218CR0000869","MEDICAL - EMERGENCY","MEDICAL - EMERGENCY","134 RAMPART DR","",""
"01/11/2018","13:31","218CR0000870","TRAFFIC HAZARD","TRAFFIC HAZARD","MT 2 MM 68","",""
"01/11/2018","13:45","218CR0000871","HIT AND RUN","HIT AND RUN","225 N ALASKA","",""
"01/11/2018","13:48","218CR0000872","MEDICAL - EMERGENCY","MEDICAL - EMERGENCY","3900 JUPITER LANE APT B108","",""
"01/11/2018","13:54","218CR0000874","FIRE- GAS ODOR","FIRE- GAS ODOR","630 1/2 W GRANITE","",""
"01/11/2018","13:54","218CR0000873","T/S","T/S @ ","","",""
"01/11/2018","14:32","218CR0000875","BURGLARY","THEFT FROM BUILDINGS","1730 LONGFELLOW","",""
"01/11/2018","14:36","218CR0000876","FIRE - OTHER","FIRE - OTHER","820 S DAKOTA","",""
"01/11/2018","14:40","218CR0000877","FRAUD","FRAUD","205 W GRNAITE #206","",""
"01/11/2018","14:52","218CR0000878","MEDICAL - EMERGENCY","MEDICAL - EMERGENCY","1019 W PORPHYRY","",""
"01/11/2018","15:01","218CR0000879","DETENTION BUSINESS","DETENTION BUSINESS","************","",""
"01/11/2018","15:22","218CR0000880","T/S","T/S @ SAMPSON AND KAW","SAMPSON AND KAW","",""
"01/11/2018","15:46","218CR0000881","ASSIST OTHER AGENCY","ASSIST OTHER AGENCY","I15 MM 144 SB","",""
"01/11/2018","15:49","218CR0000882","JUVENILE MISC","JUVENILE MISC","************","",""
"01/11/2018","15:52","218CR0000883","FIRE - OTHER","FIRE - OTHER","1016 GAYLORD","",""
"01/11/2018","15:54","218CR0000884","JUVENILE MISC","JUVENILE MISC","************","",""
"01/11/2018","15:57","218CR0000885","CIVIL PAPER SERVICE","CIVIL PAPER SERVICE","846 CALEDONIA","",""
"01/11/2018","16:12","218CR0000886","JUVENILE MISC","JUVENILE MISC","************","",""
"01/11/2018","16:16","218CR0000887","DISTURBANCE","DISTURBANCE","700 CASEY ST","",""
"01/11/2018","16:54","218CR0000888","DISTURBANCE-NOISE","DISTURBANCE-NOISE","2645 GOODWIN","",""
"01/11/2018","16:56","218CR0000889","MEDICAL - EMERGENCY","MEDICAL - EMERGENCY","2653 NETTIE","",""
"01/11/2018","17:03","218CR0000890","OPEN BUILDING","OPEN BUILDING","807 S COLORADO","",""
"01/11/2018","17:10","218CR0000891","ALL OTHER","ALL OTHER","110 N JEFFERSON","",""
"01/11/2018","17:42","218CR0000892","ALL OTHER","ALL OTHER","3536 GAYLORD","",""
"01/11/2018","18:07","218CR0000894","SUICIDE ATTEMPT/THREAT","SUICIDE ATTEMPT/THREAT","************","",""
"01/11/2018","18:19","218CR0000895","ALL OTHER","ALL OTHER","225 N ALASKA","",""
"01/11/2018","18:34","218CR0000896","T/S","T/S @ HOLMES AND ROWE RD","HOLMES AND ROWE RD","",""
"01/11/2018","19:03","218CR0000897","ALARM - BURGLARY","ALARM - BURGLARY","************","",""
"01/11/2018","19:28","218CR0000898","T/S","T/S @ HARRISON AND SAMPSON","HARRISON AND SAMPSON","",""
"01/11/2018","19:30","218CR0000899","DISTURBANCE","DISTURBANCE","2720 PINE ST","",""
"01/11/2018","19:32","218CR0000900","MEDICAL - EMERGENCY","MEDICAL - EMERGENCY","3701 ELIZABETH WARREN","",""
"01/11/2018","19:35","218CR0000901","CIVIL PAPER SERVICE","CIVIL PAPER SERVICE","706 SILVER BOW HOMES","",""
"01/11/2018","19:46","218CR0000902","WELFARE CHECK","WELFARE CHECK","2915 OTTAWA","",""
"01/11/2018","19:50","218CR0000903","DISTURBANCE","DISTURBANCE","501 S MONTANA ST","",""
"01/11/2018","20:19","218CR0000904","ASSIST OTHER AGENCY","ASSIST OTHER AGENCY","MONTANA AND PORPHYRY","",""
"01/11/2018","21:24","218CR0000905","MEDICAL - EMERGENCY","MEDICAL - EMERGENCY","1040 W PLATINUM","",""
"01/11/2018","21:30","218CR0000906","FRAUD","FRAUD","60 E BROADWAY /ACOMA","",""
"01/11/2018","22:23","218CR0000907","ACCIDENT-MHP","ACCIDENT-MHP","I15 MM 113 NB","",""
"01/11/2018","23:07","218CR0000908","ASSAULT","ASSAULT","************","",""
"01/11/2018","23:18","218CR0000909","UNWANTED PERSON","UNWANTED PERSON","************","",""
"01/12/2018","00:27","218CR0000910","BUSINESS CHECK","BUSINESS CHECK","531 S MONTANA","",""
"01/12/2018","00:32","218CR0000911","T/S","T/S","LOCUST AND HOWARD","",""
"01/12/2018","00:44","218CR0000912","SUSPICIOUS ACTIVITY","SUSPICIOUS ACTIVITY","5103 HARRISON AVE","",""
"01/12/2018","00:48","218CR0000913","BUSINESS CHECK","BUSINESS CHECK","2000 DEWEY BLVD","",""
"01/12/2018","00:51","218CR0000914","BUSINESS CHECK","BUSINESS CHECK","2711 HARRISON AVE","",""
"01/12/2018","00:57","218CR0000915","T/S","T/S","GOODWIN AND PORTER","",""
"01/12/2018","01:14","218CR0000916","SUSPICIOUS ACTIVITY","SUSPICIOUS ACTIVITY","1100 BLK N EXCELSIOR","",""
"01/12/2018","02:16","218CR0000917","T/S","T/S @ 1370 HARRISON AVE","1370 HARRISON AVE","",""
"01/12/2018","02:19","218CR0000918","T/S","T/S","HOLMES AND WYNNE","",""
"01/12/2018","02:21","218CR0000919","ASSIST OTHER AGENCY","ASSIST OTHER AGENCY","800 BLK S MAIN","",""
"01/12/2018","04:33","218CR0000920","ACCIDENT- INJURY(MHP)","ACCIDENT- INJURY(MHP)","I15 MM 121 NB","",""
"01/12/2018","04:51","218CR0000921","ALARM - MEDICAL","ALARM - MEDICAL","************","",""
"01/12/2018","05:12","218CR0000922","T/S","T/S @ MONTANA AND SECOND","MONTANA AND SECOND","",""
"01/12/2018","05:14","218CR0000923","SUSPICIOUS ACTIVITY","MOTOR VEHICLE THEFT","1000 BLK W WOOLMAN ST","",""
"01/12/2018","05:27","218CR0000924","MEDICAL - EMERGENCY","MEDICAL - EMERGENCY","1828 ADAMS AVE","",""
"01/12/2018","05:49","218CR0000925","ASSIST OTHER AGENCY","ASSIST OTHER AGENCY","I15 MM 138 NB","",""
"01/12/2018","06:35","218CR0000927","TRAFFIC HAZARD","TRAFFIC HAZARD","I 15 MM 127 S BND","",""
"01/12/2018","07:38","218CR0000929","DISTURBANCE","DISTURBANCE","62 W BROADWAY","",""
 

BSB police report ending January 11, 2018

"01/10/2018","00:08","218CR0000739","BUSINESS CHECK","BUSINESS CHECK","531 S MONTANA TOWN PUMP","",""
"01/10/2018","00:30","218CR0000740","SUSPICIOUS ACTIVITY","DUI DRUGS OR ALCOHOL","2280 AMHERST LENNYS CASINO","ARREST(s) MADE",""
"01/10/2018","00:31","218CR0000741","CRIMINAL TRESPASS","CRIMINAL TRESPASS","6 E SECOND","",""
"01/10/2018","00:44","218CR0000742","UNWANTED PERSON","UNWANTED PERSON","************","",""
"01/10/2018","00:56","218CR0000744","ALL OTHER","ALL OTHER","1040 MISSOURI","",""
"01/10/2018","00:57","218CR0000743","MEDICAL - EMERGENCY","MEDICAL - EMERGENCY","321 N JACKSON","",""
"01/10/2018","01:02","218CR0000745","MEDICAL - EMERGENCY","MEDICAL - EMERGENCY","920 S COLORADO","",""
"01/10/2018","01:04","218CR0000746","MEDICAL - EMERGENCY","MEDICAL - EMERGENCY","201 HOBSON #46","",""
"01/10/2018","01:35","218CR0000747","CHILD ABUSE","CHILD ABUSE","************","",""
"01/10/2018","01:38","218CR0000748","CITIZEN AID","CITIZEN AID","1408 DEWEY","",""
"01/10/2018","01:39","218CR0000749","ATL","ATL","1110 W GRANITE","",""
"01/10/2018","01:39","218CR0000750","VANDALISM/CRIMINAL MISCHIEF","CRIMINAL MISCHIEF","1300 W PARK","",""
"01/10/2018","05:34","218CR0000751","UNKNOWN PROBLEM","UNKNOWN PROBLEM","WYNNE AND CLEVELAND","",""
"01/10/2018","05:54","218CR0000752","ATL","ATL","ELIZABETH WARREN AND HARRISON","",""
"01/10/2018","07:32","218CR0000753","ASSIST OTHER AGENCY","POSSESSION OF DANGEROUS DRUGS","226 W SILVER APT 14","ARREST(s) MADE",""
"01/10/2018","07:59","218CR0000754","DISTURBANCE","DISTURBANCE","665 S WASHINGTON","",""
"01/10/2018","07:59","218CR0000755","THEFT","THEFT","843 LEXINGTON","",""
"01/10/2018","08:11","218CR0000756","THEFT","THEFT","3101 GOODWIN","",""
"01/10/2018","08:18","218CR0000757","ACCIDENT - INJURY","ACCIDENT - INJURY","CONTINENTAL AND DEXTER","",""
"01/10/2018","08:51","218CR0000758","CIVIL PAPER SERVICE","CIVIL PAPER SERVICE","525 E MERCURY MCDC","",""
"01/10/2018","08:53","218CR0000759","ACCIDENT-MHP","ACCIDENT-MHP","I 90 MM228","",""
"01/10/2018","09:03","218CR0000760","THEFT","THEFT FROM BUILDINGS","5050 HARRISON #4","",""
"01/10/2018","09:05","218CR0000761","THEFT","THEFT","530 EDISON","",""
"01/10/2018","09:07","218CR0000762","ALARM - BURGLARY","ALARM - BURGLARY","************","",""
"01/10/2018","09:23","218CR0000763","ACCIDENT-MHP","ACCIDENT-MHP","I 90 MM 201 EXIT E BND","",""
"01/10/2018","09:36","218CR0000764","ACCIDENT-MHP","ACCIDENT-MHP","I15 MM 116 NB","",""
"01/10/2018","09:50","218CR0000765","DETENTION BUSINESS","DETENTION BUSINESS","************","",""
"01/10/2018","09:58","218CR0000766","ALARM - BURGLARY","ALARM - BURGLARY","************","",""
"01/10/2018","09:59","218CR0000767","ACCIDENT","ACCIDENT","CRYSTAL AND MERCURY","",""
"01/10/2018","10:53","218CR0000768","ASSIST OTHER AGENCY","ASSIST OTHER AGENCY","1230 RACCOON WY","",""
"01/10/2018","10:56","218CR0000769","FRAUD","FRAUD","225 N ALASKA","",""
"01/10/2018","11:00","218CR0000770","ATL","ATL","1442 EASY ST","",""
"01/10/2018","11:11","218CR0000771","ACCIDENT- INJURY(MHP)","ACCIDENT- INJURY(MHP)","I 90 MM 229","",""
"01/10/2018","11:30","218CR0000772","JUVENILE MISC","JUVENILE MISC","************","",""
"01/10/2018","11:40","218CR0000773","FIRE- GAS ODOR","FIRE- GAS ODOR","1000 GEORGE ST","",""
"01/10/2018","11:42","218CR0000775","INFORMATION ONLY","INFORMATION ONLY","ANACONDA DEER LODGE COUNTY","",""
"01/10/2018","11:42","218CR0000774","CITIZEN AID","CITIZEN AID","118 COTTAGE LOOP","",""
"01/10/2018","11:48","218CR0000776","CIVIL PAPER SERVICE","CIVIL PAPER SERVICE","732 W GRANITE","",""
"01/10/2018","11:57","218CR0000777","ATL","CRIMINAL MISCHIEF","24 E COPPER","ARREST(s) MADE",""
"01/10/2018","12:04","218CR0000778","ASSIST OTHER AGENCY","POSSESS DRUG PARAPHERNALIA","1021 GAYLORD","ARREST(s) MADE",""
"01/10/2018","12:10","218CR0000779","CIVIL PAPER SERVICE","CIVIL PAPER SERVICE","2955 BUSCH","",""
"01/10/2018","12:28","218CR0000780","ASSIST OTHER AGENCY","ASSIST OTHER AGENCY","CONTINENTAL DR AND EDWARDS","",""
"01/10/2018","12:34","218CR0000781","WELFARE CHECK","WELFARE CHECK","2825 WALNUT","",""
"01/10/2018","12:48","218CR0000782","HIT AND RUN","HIT AND RUN","117 N EXCELSIOR","",""
"01/10/2018","13:18","218CR0000783","CIVIL PAPER SERVICE","CIVIL PAPER SERVICE","600 S MAIN/TOWN PUMP CORP","",""
"01/10/2018","13:45","218CR0000784","WELFARE CHECK","WELFARE CHECK","1305 STUART","",""
"01/10/2018","13:46","218CR0000785","BURGLARY","BURGLARY","401 W GRANITE #4","",""
"01/10/2018","14:04","218CR0000786","CIVIL PAPER SERVICE","CIVIL PAPER SERVICE","155 W GRANITE","",""
"01/10/2018","14:06","218CR0000787","T/S","T/S","HARRISON AND I15 ON RAMP WB","",""
"01/10/2018","14:14","218CR0000789","ACCIDENT","ACCIDENT","DEWEY BLVD AND HARRISON AVE","",""
"01/10/2018","14:16","218CR0000788","T/S","T/S @ WARREN AND LONGFELLOW","WARREN AND LONGFELLOW","",""
"01/10/2018","14:24","218CR0000790","PARKING COMPLAINT","PARKING COMPLAINT","1000 S ARIZONA HEADSTART","",""
"01/10/2018","14:26","218CR0000791","HARASSMENT","HARASSMENT","2825 MOULTON","",""
"01/10/2018","14:30","218CR0000792","ALL OTHER","ALL OTHER","3320 PAXSON ST","",""
"01/10/2018","14:52","218CR0000793","DETENTION BUSINESS","DETENTION BUSINESS","************","",""
"01/10/2018","15:05","218CR0000794","ASSIST OTHER AGENCY","ASSIST OTHER AGENCY","PLATINUM AND IDAHO","",""
"01/10/2018","15:06","218CR0000795","THEFT","THEFT, SHOPLIFT","3901 HARRISON AVE","ARREST(s) MADE",""
"01/10/2018","15:38","218CR0000796","ALL OTHER","ALL OTHER","1230 RACCOON WAY","",""
"01/10/2018","15:39","218CR0000797","T/S","T/S @ ","","",""
"01/10/2018","15:41","218CR0000798","ACCIDENT","ACCIDENT","10 N CLARK ST","",""
"01/10/2018","15:47","218CR0000799","ASSIST OTHER AGENCY","ASSIST OTHER AGENCY","I15 MM 160 SB","",""
"01/10/2018","15:58","218CR0000800","LOST OR STOLEN PROPERTY","LOST OR STOLEN PROPERTY","207 BAVARIA ST","",""
"01/10/2018","16:00","218CR0000801","T/S","T/S @ ALUMINUM ST AND MONTANA ST","ALUMINUM ST AND MONTANA ST","",""
"01/10/2018","16:09","218CR0000802","JUVENILE MISC","JUVENILE MISC","************","",""
"01/10/2018","16:13","218CR0000803","WELFARE CHECK","WELFARE CHECK","3117 STATE","",""
"01/10/2018","16:22","218CR0000804","CITIZEN AID","CITIZEN AID","3400 HILL AVE #1105","",""
"01/10/2018","16:33","218CR0000805","WELFARE CHECK","WELFARE CHECK","410 SILVERBOW HOMES","",""
"01/10/2018","16:47","218CR0000806","ACCIDENT","ACCIDENT","PARK AND MAIN","",""
"01/10/2018","16:53","218CR0000807","SEXUAL ASSAULT","SEXUAL ASSAULT","************","",""
"01/10/2018","17:00","218CR0000808","WANTED PERSON","WANTED PERSON","************","",""
"01/10/2018","17:13","218CR0000809","STOLEN VEHICLE","MOTOR VEHICLE THEFT","130 N MAIN ST","",""
"01/10/2018","17:20","218CR0000810","DISTURBANCE","PFMA - MINOR INJ/PHYSICAL CONT","1037 PLACER ST","ARREST(s) MADE",""
"01/10/2018","17:35","218CR0000811","DISTURBANCE","DISTURBANCE","KFC PARKING LOT","",""
"01/10/2018","17:36","218CR0000812","MEDICAL - EMERGENCY","MEDICAL - EMERGENCY","609 SILVER BOW HOMES","",""
"01/10/2018","17:43","218CR0000813","INTIMIDATION","INTIMIDATION","1320 JOY LANE","",""
"01/10/2018","17:46","218CR0000814","THEFT","THEFT","FLYING J 122000 BROWNS GLCH RD","",""
"01/10/2018","17:52","218CR0000815","MEDICAL - EMERGENCY","MEDICAL - EMERGENCY","TOWN PUMP DEWEY // HARRISON","",""
"01/10/2018","17:59","218CR0000816","ALL OTHER","ALL OTHER","225 N ALASKA","",""
"01/10/2018","18:01","218CR0000817","THEFT","THEFT","5255 SADDLE ROCK RD","",""
"01/10/2018","18:07","218CR0000818","WELFARE CHECK","WELFARE CHECK","3300 HARRISON AVE","",""
"01/10/2018","18:14","218CR0000819","ALL OTHER","ALL OTHER","2102 SILVERBOW BLVD","",""
"01/10/2018","18:30","218CR0000820","SUSPICIOUS ACTIVITY","SUSPICIOUS ACTIVITY","310 E FRONT ST SAFEWAY","",""
"01/10/2018","18:39","218CR0000821","SUSPICIOUS ACTIVITY","SUSPICIOUS ACTIVITY","718 W BROADWAY","",""
"01/10/2018","18:54","218CR0000822","THEFT","THEFT","1500 FAIRMONT","",""
"01/10/2018","18:58","218CR0000823","SUSPICIOUS ACTIVITY","SUSPICIOUS ACTIVITY","4 MILE VU RD AND HARRISON","",""
"01/10/2018","19:05","218CR0000824","MEDICAL - EMERGENCY","MEDICAL - EMERGENCY","155 W QUARTZ","",""
"01/10/2018","19:11","218CR0000825","JUVENILE MISC","JUVENILE MISC","************","",""
"01/10/2018","20:07","218CR0000826","HIT AND RUN","HIT AND RUN","838 S COLORADO","",""
"01/10/2018","20:10","218CR0000827","ALL OTHER","ALL OTHER","2514 PARROT","",""
"01/10/2018","20:12","218CR0000828","DISTURBANCE","DISTURBANCE","1905 1/2 SHERMAN","",""
"01/10/2018","20:30","218CR0000829","JUVENILE MISC","JUVENILE MISC","************","",""
"01/10/2018","21:37","218CR0000830","TRAFFIC","TRAFFIC","CONTINENTAL MCGRUFF PARK","",""
"01/10/2018","21:47","218CR0000831","DISTURBANCE","DISTURBANCE","1305 SILVERBOW HOMES","",""
"01/10/2018","22:06","218CR0000832","SUSPICIOUS ACTIVITY","SUSPICIOUS ACTIVITY","GALENA AND MAIN","",""
"01/10/2018","22:26","218CR0000833","DISTURBANCE","DISORDERLY CONDUCT","647 W GRANITE","ARREST(s) MADE",""
"01/10/2018","23:30","218CR0000834","WELFARE CHECK","WELFARE CHECK","1230 RACCOON WAY","",""
"01/11/2018","00:09","218CR0000835","BUSINESS CHECK","BUSINESS CHECK","531 S MONTANA","",""
"01/11/2018","00:21","218CR0000836","UNWANTED PERSON","FAILURE TO DISPERSE","2000 DEWEY BLVD","ARREST(s) MADE",""
"01/11/2018","00:57","218CR0000837","WELFARE CHECK","WELFARE CHECK","FRONT AND HARRISON","",""
"01/11/2018","01:15","218CR0000838","SUSPICIOUS ACTIVITY","SUSPICIOUS ACTIVITY","3745 HARRISON AV","",""
"01/11/2018","01:20","218CR0000839","ALARM - BURGLARY","ALARM - BURGLARY","************","",""
"01/11/2018","01:30","218CR0000840","BUSINESS CHECK","BUSINESS CHECK","2711 HARRISON AVE","",""
"01/11/2018","01:37","218CR0000841","ATL","ATL","814 S COLORADO","",""
"01/11/2018","01:48","218CR0000842","SUSPICIOUS ACTIVITY","SUSPICIOUS ACTIVITY","GEORGE AND HARRISON","",""
"01/11/2018","02:12","218CR0000843","SUSPICIOUS ACTIVITY","SUSPICIOUS ACTIVITY","1900 BLK OREGON AVE","",""
"01/11/2018","02:31","218CR0000844","SUSPICIOUS ACTIVITY","SUSPICIOUS ACTIVITY","SILVERBOW BLVD AND CAROLINA","",""
 

BSB police reports ending January 10, 2018

"01/09/2018","00:01","218CR0000673","T/S","T/S","HOLMES AND OREGON","",""
"01/09/2018","00:19","218CR0000674","T/S","T/S","1370 HARRISON AVE TOWN PUMP","",""
"01/09/2018","00:57","218CR0000675","SUSPICIOUS ACTIVITY","SUSPICIOUS ACTIVITY","1370 HARRISON TOWN PUMP","",""
"01/09/2018","01:03","218CR0000676","SUSPICIOUS ACTIVITY","SUSPICIOUS ACTIVITY","1600 BLK ELM ST ALLEY S","",""
"01/09/2018","01:10","218CR0000677","SUSPICIOUS ACTIVITY","SUSPICIOUS ACTIVITY","1370 HARRISON TOWN PUMP","",""
"01/09/2018","02:40","218CR0000678","BUSINESS CHECK","BUSINESS CHECK","2711 HARRISON TOWN PUMP","",""
"01/09/2018","03:30","218CR0000679","SUSPICIOUS ACTIVITY","SUSPICIOUS ACTIVITY","NEVADA AVE AND PLATINUM ST","",""
"01/09/2018","06:55","218CR0000680","MEDICAL - EMERGENCY","MEDICAL - EMERGENCY","3470 RIDGEWAY","",""
"01/09/2018","07:03","218CR0000681","VANDALISM/CRIMINAL MISCHIEF","VANDALISM/CRIMINAL MISCHIEF","1304 HARRISON","",""
"01/09/2018","07:22","218CR0000682","DETENTION BUSINESS","DETENTION BUSINESS","************","",""
"01/09/2018","07:29","218CR0000683","LED BUSINESS","LED BUSINESS","155 W GRANITE","",""
"01/09/2018","08:01","218CR0000684","HIT AND RUN","HIT AND RUN","2711 HARRISON AVE","",""
"01/09/2018","08:34","218CR0000685","WELFARE CHECK","WELFARE CHECK","1916 C ST","",""
"01/09/2018","08:42","218CR0000686","JUVENILE MISC","TRUANCY","401 S WYOMING ST","ARREST(s) MADE",""
"01/09/2018","09:00","218CR0000687","LED BUSINESS","LED BUSINESS","155 W GRANITE ST","",""
"01/09/2018","09:07","218CR0000688","CIVIL PAPER SERVICE","CIVIL PAPER SERVICE","1928 S JACKSON #19","",""
"01/09/2018","09:14","218CR0000689","CIVIL PAPER SERVICE","CIVIL PAPER SERVICE","1132 1/2 FARRELL ST","",""
"01/09/2018","09:29","218CR0000690","THEFT","THEFT","4900 LISAC LANE","",""
"01/09/2018","09:29","218CR0000691","JUVENILE MISC","TRUANCY","401 S WYOMING ST","ARREST(s) MADE",""
"01/09/2018","09:30","218CR0000692","DISTURBANCE","DISTURBANCE","3825 GREEN LANE #10","",""
"01/09/2018","09:37","218CR0000693","VEHICLE INSPECTION","VEHICLE INSPECTION","121 OROFINO GULCH RD","",""
"01/09/2018","09:45","218CR0000694","JUVENILE MISC","POSSESS ALCOHOL OR INTOXICANT","401S WYOMING","",""
"01/09/2018","09:49","218CR0000695","THEFT","THEFT FROM MOTOR VEHICLE","2705 ARGYLE #6","",""
"01/09/2018","09:55","218CR0000696","MEDICAL - EMERGENCY","MEDICAL - EMERGENCY","100 GARDENS WAY #144","",""
"01/09/2018","10:49","218CR0000698","ASSAULT","ASSAULT","************","",""
"01/09/2018","10:54","218CR0000699","T/S","T/S @ GRAND AVE AND CONTINENTAL DR","GRAND AVE AND CONTINENTAL DR","",""
"01/09/2018","11:10","218CR0000700","ALL OTHER","ALL OTHER","225 N ALASKA ST","",""
"01/09/2018","11:13","218CR0000701","FIRE - OTHER","FIRE - OTHER","1300 BLK HOBSON","",""
"01/09/2018","11:21","218CR0000702","CIVIL STANDBY","CIVIL STANDBY","1325 W QUARTZ #105","",""
"01/09/2018","11:27","218CR0000703","LED BUSINESS","LED BUSINESS","155 W QUARTZ","",""
"01/09/2018","11:33","218CR0000704","MEDICAL - EMERGENCY","MEDICAL - EMERGENCY","1300 BLK W PARK ST","",""
"01/09/2018","11:36","218CR0000705","DISTURBANCE","DISTURBANCE","2001 HARRISON","",""
"01/09/2018","12:19","218CR0000706","CIVIL PAPER SERVICE","CIVIL PAPER SERVICE","1819 SCHLEY","",""
"01/09/2018","12:54","218CR0000709","ATL","ATL","410 N WASHINGTON","",""
"01/09/2018","13:02","218CR0000710","FIRE - OTHER","FIRE - OTHER","3703 HARRISON AVE","",""
"01/09/2018","13:15","218CR0000711","FRAUD","ISSUING A BAD CHECK","1880 HARRISON AVE","",""
"01/09/2018","13:16","218CR0000712","FRAUD","FRAUD","1760 HARRISON AVE","",""
"01/09/2018","13:31","218CR0000713","ASSIST OTHER AGENCY","ASSIST OTHER AGENCY","1711 PHILLIPS AVE","",""
"01/09/2018","13:44","218CR0000714","VANDALISM/CRIMINAL MISCHIEF","CRIMINAL MISCHIEF","BATTLE RIDGE ROAD","",""
"01/09/2018","13:56","218CR0000715","ANIMAL COMPLAINT-BITE","ANIMAL COMPLAINT-BITE","206 W GRANITE","",""
"01/09/2018","14:50","218CR0000716","WELFARE CHECK","WELFARE CHECK","2718 SILVER BOW BLVD","",""
"01/09/2018","14:53","218CR0000717","JUVENILE MISC","JUVENILE MISC","************","",""
"01/09/2018","15:14","218CR0000718","T/S","T/S","300 BLK OF WOOLMAN","",""
"01/09/2018","15:19","218CR0000719","TRAFFIC HAZARD","TRAFFIC HAZARD","ELIZABETH WARREN AND CONTINENT","",""
"01/09/2018","15:52","218CR0000720","THEFT","THEFT BY DECEPTION","3426 OTTAWA ST","",""
"01/09/2018","16:03","218CR0000721","JUVENILE MISC","JUVENILE MISC","************","",""
"01/09/2018","16:08","218CR0000722","HIT AND RUN","HIT AND RUN","303 W QUARTZ","",""
"01/09/2018","16:48","218CR0000723","CITIZEN AID","CITIZEN AID","3400 HILL APT 1105","",""
"01/09/2018","16:58","218CR0000724","SUSPICIOUS ACTIVITY","SUSPICIOUS ACTIVITY","1131 E 3RD ST","",""
"01/09/2018","17:25","218CR0000725","MEDICAL - ASSIST","MEDICAL - ASSIST","************","",""
"01/09/2018","17:55","218CR0000726","MEDICAL - EMERGENCY","MEDICAL - EMERGENCY","102 SILVER BOW HOMES","",""
"01/09/2018","18:03","218CR0000727","DISTURBANCE","DISTURBANCE","1305 SILVER BOW HOMES","",""
"01/09/2018","18:06","218CR0000728","MEDICAL - ASSIST","MEDICAL - ASSIST","************","",""
"01/09/2018","18:52","218CR0000729","T/S","T/S","KAW AND RAIL RD","",""
"01/09/2018","19:24","218CR0000730","VANDALISM/CRIMINAL MISCHIEF","VANDALISM/CRIMINAL MISCHIEF","531 S MONTANA ST","",""
"01/09/2018","19:36","218CR0000731","T/S","CRIMINAL CONTEMPT","PLACER AND LASALLE","ARREST(s) MADE",""
"01/09/2018","19:56","218CR0000732","T/S","T/S @ GRAND AVE AND CONTINENTAL DR","GRAND AVE AND CONTINENTAL DR","",""
"01/09/2018","22:03","218CR0000733","ALARM - FIRE","ALARM - FIRE","3939 HARRISON MURDOCHS","",""
"01/09/2018","22:15","218CR0000734","SUSPICIOUS ACTIVITY","CRIMINAL CONTEMPT","304 S WASHINGTON","ARREST(s) MADE",""
"01/09/2018","22:43","218CR0000735","DISTURBANCE","DISTURBANCE","2707 WALNUT","",""
"01/09/2018","23:04","218CR0000736","DETENTION BUSINESS","DETENTION BUSINESS","************","",""
"01/09/2018","23:14","218CR0000737","SUSPICIOUS ACTIVITY","SUSPICIOUS ACTIVITY","1125 S MAIN #105","",""
"01/09/2018","23:16","218CR0000738","SUSPICIOUS ACTIVITY","SUSPICIOUS ACTIVITY","1800 BLK LOWELL","",""
"01/10/2018","00:08","218CR0000739","BUSINESS CHECK","BUSINESS CHECK","531 S MONTANA TOWN PUMP","",""
"01/10/2018","00:30","218CR0000740","SUSPICIOUS ACTIVITY","DUI DRUGS OR ALCOHOL","2280 AMHERST LENNYS CASINO","ARREST(s) MADE",""
"01/10/2018","00:31","218CR0000741","CRIMINAL TRESPASS","CRIMINAL TRESPASS","6 E SECOND","",""
"01/10/2018","00:44","218CR0000742","UNWANTED PERSON","UNWANTED PERSON","************","",""
"01/10/2018","00:56","218CR0000744","ALL OTHER","ALL OTHER","1040 MISSOURI","",""
"01/10/2018","00:57","218CR0000743","MEDICAL - EMERGENCY","MEDICAL - EMERGENCY","321 N JACKSON","",""
"01/10/2018","01:02","218CR0000745","MEDICAL - EMERGENCY","MEDICAL - EMERGENCY","920 S COLORADO","",""
"01/10/2018","01:04","218CR0000746","MEDICAL - EMERGENCY","MEDICAL - EMERGENCY","201 HOBSON #46","",""
"01/10/2018","01:35","218CR0000747","CHILD ABUSE","CHILD ABUSE","************","",""
"01/10/2018","01:38","218CR0000748","CITIZEN AID","CITIZEN AID","1408 DEWEY","",""
"01/10/2018","01:39","218CR0000749","ATL","ATL","1110 W GRANITE","",""
"01/10/2018","01:39","218CR0000750","VANDALISM/CRIMINAL MISCHIEF","CRIMINAL MISCHIEF","1300 W PARK","",""
"01/10/2018","05:34","218CR0000751","UNKNOWN PROBLEM","UNKNOWN PROBLEM","WYNNE AND CLEVELAND","",""
"01/10/2018","05:54","218CR0000752","ATL","ATL","ELIZABETH WARREN AND HARRISON","",""
 

BSB police report ending January 9, 2016

"01/08/2018","00:03","218CR0000577","T/S","T/S","PAXSON AND MEADOWLARK","",""
"01/08/2018","00:14","218CR0000578","SUSPICIOUS ACTIVITY","SUSPICIOUS ACTIVITY","600 BLK S IDAHO","",""
"01/08/2018","00:24","218CR0000579","ALL OTHER","ALL OTHER","1370 HARRISON TOWN PUMP","",""
"01/08/2018","00:43","218CR0000580","SUSPICIOUS ACTIVITY","SUSPICIOUS ACTIVITY","1324 HARRISON AVE BUS DEPOT","",""
"01/08/2018","01:11","218CR0000581","MEDICAL - EMERGENCY","MEDICAL - EMERGENCY","402 DRIFTER LN","",""
"01/08/2018","01:30","218CR0000582","ALARM - BURGLARY","ALARM - BURGLARY","************","",""
"01/08/2018","02:10","218CR0000583","SUSPICIOUS ACTIVITY","SUSPICIOUS ACTIVITY","600 BLK COLORADO","",""
"01/08/2018","02:27","218CR0000584","BUSINESS CHECK","BUSINESS CHECK","531 S MONTANA TOWN PUMP","",""
"01/08/2018","02:40","218CR0000585","CHILD ABUSE","CHILD ABUSE","************","",""
"01/08/2018","04:19","218CR0000586","THEFT","THEFT","2711 HARRISON AVE","",""
"01/08/2018","04:59","218CR0000587","DISTURBANCE-NOISE","DISTURBANCE-NOISE","1905 SILVERBOW HOMES","",""
"01/08/2018","05:18","218CR0000588","TRAFFIC HAZARD","TRAFFIC HAZARD","A ST AND HARRISON","",""
"01/08/2018","05:44","218CR0000589","THEFT","THEFT","1324 HARRISON AVE BUS DEPOT","",""
"01/08/2018","06:00","218CR0000590","SUSPICIOUS ACTIVITY","DRIVE WHILE SUSP. OR REVOKED","MONTANA AND BENNETT","",""
"01/08/2018","08:01","218CR0000592","THEFT","THEFT, ALL OTHERS","2955 BUSCH AVE","",""
"01/08/2018","08:08","218CR0000593","T/S","CRIMINAL CONTEMPT","2401 CONTINENTAL DRIVE","ARREST(s) MADE",""
"01/08/2018","08:12","218CR0000594","T/S","T/S","GRAND AVE AND WILSON ST","",""
"01/08/2018","08:16","218CR0000595","CIVIL PAPER SERVICE","CIVIL PAPER SERVICE","1132 1/2 FARRELL ST","",""
"01/08/2018","08:18","218CR0000596","ALARM - MEDICAL","ALARM - MEDICAL","************","",""
"01/08/2018","08:35","218CR0000597","T/S","CRIMINAL CONTEMPT","3401 HARRISON","ARREST(s) MADE",""
"01/08/2018","08:42","218CR0000598","T/S","T/S @ HANNIBAL AND HANCOCK","HANNIBAL AND HANCOCK","",""
"01/08/2018","08:44","218CR0000599","T/S","T/S","MONTANA AND PORPHYRY","",""
"01/08/2018","08:50","218CR0000600","T/S","T/S","MONTANA ST AND IRON","",""
"01/08/2018","09:08","218CR0000601","T/S","OPERATING WITHOUT CURRENT REGI","PLATINUM AND MONTANA","",""
"01/08/2018","09:12","218CR0000602","INFORMATION ONLY","INFORMATION ONLY","UNKNOWN IN BUTTE","",""
"01/08/2018","09:21","218CR0000603","THEFT","FORGERY/COUNTERFEIT","1301 UTAH ST","",""
"01/08/2018","09:26","218CR0000604","T/S","SPEEDING","MONTANA AND TECUMSEH WY","",""
"01/08/2018","09:39","218CR0000605","T/S","T/S @ PRINCETON AND HARRISON","PRINCETON AND HARRISON","",""
"01/08/2018","09:41","218CR0000606","MEDICAL - EMERGENCY","MEDICAL - EMERGENCY","205 E PACIFIC","",""
"01/08/2018","09:47","218CR0000607","ACCIDENT","ACCIDENT","PARK AND MAIN","",""
"01/08/2018","09:47","218CR0000608","THEFT","THEFT, ALL OTHERS","2312 COLORADO","",""
"01/08/2018","09:50","218CR0000609","T/S","T/S","1800 BLK MASSACHUSETTS","",""
"01/08/2018","09:52","218CR0000610","STOLEN VEHICLE","STOLEN VEHICLE","435 1/2 W SILVER","",""
"01/08/2018","10:01","218CR0000611","T/S","T/S","2000 BLK HARRISON AVE","",""
"01/08/2018","10:04","218CR0000612","THEFT","FORGERY/COUNTERFEIT","1421 W GOLD ST","",""
"01/08/2018","10:09","218CR0000613","T/S","T/S","1800 BLK HARRISON","",""
"01/08/2018","10:16","218CR0000614","THEFT","THEFT FROM MOTOR VEHICLE","5103 HARRISON AVE","",""
"01/08/2018","10:16","218CR0000615","VEHICLE INSPECTION","VEHICLE INSPECTION","3524 GAYLORD","",""
"01/08/2018","10:18","218CR0000616","ALARM - BURGLARY","ALARM - BURGLARY","************","",""
"01/08/2018","10:37","218CR0000617","THEFT","CRIMINAL MISCHIEF","EAST RIDGE RD","",""
"01/08/2018","10:48","218CR0000618","ASSIST OTHER AGENCY","ASSIST OTHER AGENCY","25 E GRANITE","",""
"01/08/2018","10:48","218CR0000619","ALARM - MEDICAL","ALARM - MEDICAL","************","",""
"01/08/2018","10:56","218CR0000620","T/S","T/S","MONTANA AND HOLLAND","",""
"01/08/2018","11:08","218CR0000621","T/S","T/S @ STUART AND GRAND","STUART AND GRAND","",""
"01/08/2018","11:10","218CR0000622","T/S","SPEEDING","TEXAS AND GRAND","",""
"01/08/2018","11:12","218CR0000623","WELFARE CHECK","WELFARE CHECK","656 S IDAHO","",""
"01/08/2018","11:21","218CR0000624","MEDICAL - EMERGENCY","MEDICAL - EMERGENCY","100 GARDENS WY APP 144","",""
"01/08/2018","11:38","218CR0000625","RESTRAINING ORDER VIOLATION","RESTRAINING ORDER VIOLATION","************","",""
"01/08/2018","12:03","218CR0000626","MEDICAL - EMERGENCY","MEDICAL - EMERGENCY","712 E FRONT ST","",""
"01/08/2018","12:27","218CR0000627","THEFT","THEFT, ALL OTHERS","1350 SAMPSON","",""
"01/08/2018","13:03","218CR0000628","TRAFFIC","TRAFFIC","CONTINENTAL DRIVE AND E LAKE","",""
"01/08/2018","13:20","218CR0000629","T/S","T/S","1200 BLK HARRISON","",""
"01/08/2018","13:24","218CR0000630","T/S","OPERATING WITHOUT CURRENT REGI","WYOMING ST AND FRONT ST","",""
"01/08/2018","13:34","218CR0000631","MEDICAL - EMERGENCY","MEDICAL - EMERGENCY","17 W QUARTZ ST","",""
"01/08/2018","13:59","218CR0000632","SUSPICIOUS ACTIVITY","SUSPICIOUS ACTIVITY","COPPER AND PENNSYLVANIA","",""
"01/08/2018","14:17","218CR0000633","SUSPICIOUS ACTIVITY","SUSPICIOUS ACTIVITY","ROWE ROAD // CHULA","",""
"01/08/2018","14:30","218CR0000634","MEDICAL - EMERGENCY","MEDICAL - EMERGENCY","436 S MAIN #306","",""
"01/08/2018","14:56","218CR0000635","ALL OTHER","VIOLATION OF RELEASE CONDITION","1705 WALL ST","ARREST(s) MADE",""
"01/08/2018","15:20","218CR0000636","ACCIDENT","ACCIDENT","310 W GRANITE","",""
"01/08/2018","15:22","218CR0000637","ACCIDENT","ACCIDENT","310 W GRANITE ST","",""
"01/08/2018","15:28","218CR0000638","MEDICAL - EMERGENCY","MEDICAL - EMERGENCY","128 W GRANITE ST","",""
"01/08/2018","15:38","218CR0000639","FRAUD","FORGERY/COUNTERFEIT","1301 HARRISON AVE","",""
"01/08/2018","15:41","218CR0000640","THEFT","THEFT FROM MOTOR VEHICLE","MT LIVESTOCK/100 CATTLE DRIVE","",""
"01/08/2018","16:08","218CR0000642","ALL OTHER","ALL OTHER","817 S DAKOTA ST","",""
"01/08/2018","16:25","218CR0000645","ALARM - MEDICAL","ALARM - MEDICAL","************","",""
"01/08/2018","16:36","218CR0000647","T/S","T/S @ PARK ST AND WASHINGTON ST","PARK ST AND WASHINGTON ST","",""
"01/08/2018","16:44","218CR0000648","T/S","T/S","HARRISON AND WATERLINE RD","",""
"01/08/2018","16:55","218CR0000649","T/S","T/S","GILMAN ST AND HARRISON AVE","",""
"01/08/2018","17:00","218CR0000650","THEFT","THEFT, SHOPLIFT","1301 HARRISON AVE","",""
"01/08/2018","17:02","218CR0000651","FOUND PROPERTY","FOUND PROPERTY","************","",""
"01/08/2018","17:06","218CR0000652","MEDICAL - EMERGENCY","MEDICAL - EMERGENCY","1019 NEVADA AVE","",""
"01/08/2018","17:15","218CR0000653","ANIMAL COMPLAINT","ANIMAL COMPLAINT","I90 MM 211 EBND","",""
"01/08/2018","17:17","218CR0000654","FRAUD","FRAUD","2801 HARRISON AVE","",""
"01/08/2018","17:46","218CR0000655","MEDICAL - ASSIST","MEDICAL - ASSIST","************","",""
"01/08/2018","17:49","218CR0000656","ALL OTHER","ALL OTHER","CCCS 111 W BROADWAY","",""
"01/08/2018","18:15","218CR0000657","INTOXICATED PERSON","INTOXICATED PERSON","101 MISSOULA AVE","",""
"01/08/2018","18:37","218CR0000658","ALARM - BURGLARY","ALARM - BURGLARY","************","",""
"01/08/2018","19:28","218CR0000659","ALL OTHER","ALL OTHER","3400 HILL AVE APT 907","",""
"01/08/2018","19:32","218CR0000660","ASSIST OTHER AGENCY","ASSIST OTHER AGENCY","521 W GALENA","",""
"01/08/2018","19:58","218CR0000661","MEDICAL - ASSIST","MEDICAL - ASSIST","************","",""
"01/08/2018","20:21","218CR0000662","T/S","T/S","GARFIELD AVE AND FARRELL ST","",""
"01/08/2018","20:25","218CR0000663","ALARM - BURGLARY","ALARM - BURGLARY","************","",""
"01/08/2018","20:33","218CR0000664","SUSPICIOUS ACTIVITY","SUSPICIOUS ACTIVITY","COBBAN ST AND GARFIELD AVE","",""
"01/08/2018","21:02","218CR0000665","SUICIDE ATTEMPT/THREAT","SUICIDE ATTEMPT/THREAT","************","",""
"01/08/2018","21:16","218CR0000666","SUSPICIOUS ACTIVITY","SUSPICIOUS ACTIVITY","26 LAIRD","",""
"01/08/2018","21:24","218CR0000667","THEFT","THEFT, SHOPLIFT","3901 HARRISON AVE","",""
"01/08/2018","21:31","218CR0000668","SUSPICIOUS ACTIVITY","SUSPICIOUS ACTIVITY","GARFIELD ST AND ARGYLE ST","",""
"01/08/2018","21:43","218CR0000669","T/S","SPEEDING","MERCURY ST AND MONTANA ST","",""
"01/08/2018","21:49","218CR0000670","ALL OTHER","ALL OTHER","1104 S MAIN ST","",""
"01/08/2018","22:59","218CR0000671","BUSINESS CHECK","BUSINESS CHECK","1370 HARRISON TOWN PUMP","",""
"01/08/2018","23:11","218CR0000672","T/S","T/S","HARRISON AND MEADOWLARK","",""
"01/09/2018","00:01","218CR0000673","T/S","T/S","HOLMES AND OREGON","",""
"01/09/2018","00:19","218CR0000674","T/S","T/S","1370 HARRISON AVE TOWN PUMP","",""
"01/09/2018","00:57","218CR0000675","SUSPICIOUS ACTIVITY","SUSPICIOUS ACTIVITY","1370 HARRISON TOWN PUMP","",""
"01/09/2018","01:03","218CR0000676","SUSPICIOUS ACTIVITY","SUSPICIOUS ACTIVITY","1600 BLK ELM ST ALLEY S","",""
"01/09/2018","01:10","218CR0000677","SUSPICIOUS ACTIVITY","SUSPICIOUS ACTIVITY","1370 HARRISON TOWN PUMP","",""
"01/09/2018","02:40","218CR0000678","BUSINESS CHECK","BUSINESS CHECK","2711 HARRISON TOWN PUMP","",""
"01/09/2018","03:30","218CR0000679","SUSPICIOUS ACTIVITY","SUSPICIOUS ACTIVITY","NEVADA AVE AND PLATINUM ST","",""
"01/09/2018","06:55","218CR0000680","MEDICAL - EMERGENCY","MEDICAL - EMERGENCY","3470 RIDGEWAY","",""
"01/09/2018","07:03","218CR0000681","VANDALISM/CRIMINAL MISCHIEF","VANDALISM/CRIMINAL MISCHIEF","1304 HARRISON","",""
"01/09/2018","07:22","218CR0000682","DETENTION BUSINESS","DETENTION BUSINESS","************","",""
"01/09/2018","08:01","218CR0000684","HIT AND RUN","HIT AND RUN","2711 HARRISON AVE","",""
"01/09/2018","08:42","218CR0000686","JUVENILE MISC","JUVENILE MISC","************","",""
 

BSB police report ending January 8, 2018

"01/05/2018","00:18","218CR0000316","SUSPICIOUS ACTIVITY","SUSPICIOUS ACTIVITY","CHULA AND PARROTT","",""
"01/05/2018","00:31","218CR0000317","SUSPICIOUS ACTIVITY","SUSPICIOUS ACTIVITY","2039 GAYLORD","",""
"01/05/2018","00:56","218CR0000318","SUSPICIOUS ACTIVITY","SUSPICIOUS ACTIVITY","MAIN ST AND PLATINUM ST","",""
"01/05/2018","01:19","218CR0000319","SUSPICIOUS ACTIVITY","SUSPICIOUS ACTIVITY","901 E FRONT THRIFTWAY","",""
"01/05/2018","02:03","218CR0000320","WANTED PERSON","WANTED PERSON","************","",""
"01/05/2018","02:34","218CR0000321","ATL","ATL","PARK AND MAIN","",""
"01/05/2018","02:50","218CR0000322","UNWANTED PERSON","UNWANTED PERSON","************","",""
"01/05/2018","02:58","218CR0000323","DISTURBANCE","DISTURBANCE","906 SILVERBOW HOMES","",""
"01/05/2018","03:06","218CR0000324","ALL OTHER","ALL OTHER","633 S MONTANA ST","",""
"01/05/2018","03:41","218CR0000325","MEDICAL - EMERGENCY","MEDICAL - EMERGENCY","246 E MERCURY","",""
"01/05/2018","04:22","218CR0000326","UNWANTED PERSON","UNWANTED PERSON","************","",""
"01/05/2018","04:47","218CR0000327","BUSINESS CHECK","BUSINESS CHECK","1370 HARRISON TOWN PUMP","",""
"01/05/2018","04:47","218CR0000328","ALL OTHER","ALL OTHER","225 N ALASKA ST","",""
"01/05/2018","06:46","218CR0000329","MEDICAL - EMERGENCY","MEDICAL - EMERGENCY","2315 SILVER BOW BLVD","",""
"01/05/2018","07:56","218CR0000330","TRAFFIC HAZARD","TRAFFIC HAZARD","118 W PLATINUM","",""
"01/05/2018","08:05","218CR0000331","SUSPICIOUS ACTIVITY","SUSPICIOUS ACTIVITY","1 HOLIDAY PARK","",""
"01/05/2018","08:08","218CR0000332","ALARM - BURGLARY","ALARM - BURGLARY","************","",""
"01/05/2018","08:17","218CR0000333","WELFARE CHECK","WELFARE CHECK","1445 WATERLINE RD","",""
"01/05/2018","08:29","218CR0000334","ASSIST OTHER AGENCY","PROBATION VIOLATION","102 N ALABAMA","ARREST(s) MADE",""
"01/05/2018","08:57","218CR0000335","DETENTION BUSINESS","DETENTION BUSINESS","************","",""
"01/05/2018","09:26","218CR0000336","THEFT","THEFT, ALL OTHERS","4065 WYNNE AVE","",""
"01/05/2018","09:35","218CR0000337","CIVIL PAPER SERVICE","CIVIL PAPER SERVICE","700 W PARK","",""
"01/05/2018","09:39","218CR0000338","ASSIST OTHER AGENCY","POSSESS DRUG PARAPHERNALIA","620 1/2 S IDAHO","ARREST(s) MADE",""
"01/05/2018","10:00","218CR0000339","CIVIL PAPER SERVICE","CIVIL PAPER SERVICE","436 S MAIN ST APT 304","",""
"01/05/2018","10:10","218CR0000340","MEDICAL - EMERGENCY","MEDICAL - EMERGENCY","1115 WATERLINE RD","",""
"01/05/2018","10:13","218CR0000341","MEDICAL - EMERGENCY","MEDICAL - EMERGENCY","100 GARDENS WAY # 118","",""
"01/05/2018","10:36","218CR0000343","FRAUD","FRAUD","223 LYNDALE LN","",""
"01/05/2018","10:36","218CR0000342","ACCIDENT","ACCIDENT","HANSON RD // WASHOE","",""
"01/05/2018","10:54","218CR0000344","MEDICAL - EMERGENCY","MEDICAL - EMERGENCY","ARIZONA AND PLATINUM","",""
"01/05/2018","11:05","218CR0000345","CIVIL PAPER SERVICE","CIVIL PAPER SERVICE","425 W SILVER","",""
"01/05/2018","11:59","218CR0000346","ATL","ATL","ATLANTIC AND FRONT","",""
"01/05/2018","12:16","218CR0000347","ATL","ATL","400 S CLARK ST","",""
"01/05/2018","12:20","218CR0000348","STOLEN VEHICLE","STOLEN VEHICLE","2404 GEORGE","",""
"01/05/2018","12:27","218CR0000350","JUVENILE MISC","POSSESSION OF DANGEROUS DRUGS","401 S WYOMING","ARREST(s) MADE",""
"01/05/2018","13:12","218CR0000351","INFORMATION ONLY","INFORMATION ONLY","840 S MONTANA HIGHLANDS VET","",""
"01/05/2018","13:37","218CR0000352","MEDICAL - EMERGENCY","MEDICAL - EMERGENCY","425 S IDAHO","",""
"01/05/2018","13:39","218CR0000353","MEDICAL - EMERGENCY","MEDICAL - EMERGENCY","1301 4 MILE RD","",""
"01/05/2018","14:01","218CR0000354","CIVIL STANDBY","CIVIL STANDBY","625 W PARK","",""
"01/05/2018","14:07","218CR0000355","ACCIDENT","FOLLOWING TOO CLOSELY","ROWE RD AND CLINTON","",""
"01/05/2018","14:17","218CR0000356","DISTURBANCE","PFMA - MINOR INJ/PHYSICAL CONT","727 MARYLAND AVE","",""
"01/05/2018","14:23","218CR0000357","UNWANTED PERSON","UNWANTED PERSON","************","",""
"01/05/2018","14:30","218CR0000358","FRAUD","FRAUD","225 N ALASKA","",""
"01/05/2018","14:43","218CR0000359","INFORMATION ONLY","INFORMATION ONLY","","",""
"01/05/2018","15:08","218CR0000360","CIVIL PAPER SERVICE","CIVIL PAPER SERVICE","100 E FRONT","",""
"01/05/2018","15:17","218CR0000361","THEFT","THEFT","225 N ALASKA","",""
"01/05/2018","15:24","218CR0000362","CIVIL PAPER SERVICE","CIVIL PAPER SERVICE","2101 FARRAGUT","",""
"01/05/2018","15:33","218CR0000363","CIVIL PAPER SERVICE","CIVIL PAPER SERVICE","3320 PAXSON","",""
"01/05/2018","15:35","218CR0000364","HIT AND RUN","HIT AND RUN, UNATTENDED VEHICL","225 N ALASKA","",""
"01/05/2018","15:38","218CR0000365","THEFT","THEFT, ALL OTHERS","81 W PARK ST","",""
"01/05/2018","15:41","218CR0000366","CIVIL PAPER SERVICE","CIVIL PAPER SERVICE","5101 S WARREN #11","",""
"01/05/2018","15:41","218CR0000367","CIVIL PAPER SERVICE","CIVIL PAPER SERVICE","910 EVANS APT C5","",""
"01/05/2018","15:51","218CR0000368","WANTED PERSON","CRIMINAL CONTEMPT","1955 OREGON AVE","ARREST(s) MADE",""
"01/05/2018","15:54","218CR0000369","ACCIDENT","ACCIDENT","2600 GRAND AVE","",""
"01/05/2018","15:56","218CR0000370","CIVIL STANDBY","CIVIL STANDBY","425 W SILVER","",""
"01/05/2018","16:11","218CR0000371","THEFT","THEFT, ALL OTHERS","1255 FARRELL ST","",""
"01/05/2018","16:33","218CR0000372","WANTED PERSON","WANTED PERSON","************","",""
"01/05/2018","16:38","218CR0000373","UNWANTED PERSON","CRIMINAL TRESPASS TO PROPERTY","3901 HARRISON AVE","ARREST(s) MADE",""
"01/05/2018","17:09","218CR0000374","CIVIL PAPER SERVICE","CIVIL PAPER SERVICE","155 W QUARTZ","",""
"01/05/2018","17:19","218CR0000375","CIVIL PAPER SERVICE","CIVIL PAPER SERVICE","316 GRANITE MOUNTAIN ROAD","",""
"01/05/2018","17:32","218CR0000376","T/S","T/S","AMHERST AND BANKS","",""
"01/05/2018","17:41","218CR0000377","SUSPICIOUS ACTIVITY","SUSPICIOUS ACTIVITY","GRAND AND LAFAYETTE","",""
"01/05/2018","17:52","218CR0000378","ALL OTHER","ALL OTHER","2117 ABERDEEN ST","",""
"01/05/2018","17:55","218CR0000379","SEXUAL ASSAULT","SIWOC","3250 S MONTANA","",""
"01/05/2018","17:56","218CR0000380","ALL OTHER","ALL OTHER","225 N ALASKA","",""
"01/05/2018","18:05","218CR0000381","T/S","T/S","2700 BLK MOULTON","",""
"01/05/2018","18:55","218CR0000382","T/S","T/S","HARRISON AVE AND C ST","",""
"01/05/2018","19:54","218CR0000383","SUSPICIOUS ACTIVITY","SUSPICIOUS ACTIVITY","FLORENCE AND WALL","",""
"01/05/2018","20:02","218CR0000384","TRAFFIC HAZARD","TRAFFIC HAZARD","3100 BLK HARRISON AVE","",""
"01/05/2018","20:04","218CR0000385","T/S","T/S","SILVERBOW BLVD AND WILSON ST","",""
"01/05/2018","20:13","218CR0000386","T/S","T/S","DEWEY BLVD AND BUSCH ST","",""
"01/05/2018","20:14","218CR0000387","FOUND PROPERTY","FOUND PROPERTY","************","",""
"01/05/2018","20:21","218CR0000388","VANDALISM/CRIMINAL MISCHIEF","VANDALISM/CRIMINAL MISCHIEF","1325 W QUARTZ APT 301","",""
"01/05/2018","20:26","218CR0000389","SUSPICIOUS ACTIVITY","SUSPICIOUS ACTIVITY","217 NASSAU","",""
"01/05/2018","20:35","218CR0000390","SUSPICIOUS ACTIVITY","SUSPICIOUS ACTIVITY","MINAH ST AND MAIN ST","",""
"01/05/2018","20:41","218CR0000391","MEDICAL - EMERGENCY","MEDICAL - EMERGENCY","541 S MAIN SPUD MCGEES","",""
"01/05/2018","20:43","218CR0000392","MEDICAL - EMERGENCY","MEDICAL - EMERGENCY","665 1/2 S TRAVONIA","",""
"01/05/2018","21:10","218CR0000393","SUSPICIOUS ACTIVITY","SUSPICIOUS ACTIVITY","1800 BLK GARRISON","",""
"01/05/2018","21:32","218CR0000394","SUSPICIOUS ACTIVITY","SUSPICIOUS ACTIVITY","910 EVANS","",""
"01/05/2018","21:34","218CR0000395","SUSPICIOUS ACTIVITY","SUSPICIOUS ACTIVITY","1125 S MAIN ST","",""
"01/05/2018","21:41","218CR0000397","HARASSMENT","HARASSMENT","800 BLK S COLORADO","",""
"01/05/2018","21:42","218CR0000396","MEDICAL - EMERGENCY","MEDICAL - EMERGENCY","100 GARDENS WAY #144","",""
"01/05/2018","21:45","218CR0000398","VANDALISM/CRIMINAL MISCHIEF","VANDALISM/CRIMINAL MISCHIEF","603 SILVER BOW HOMES","",""
"01/05/2018","21:45","218CR0000399","VANDALISM/CRIMINAL MISCHIEF","VANDALISM/CRIMINAL MISCHIEF","BROADWAY AND WYOMING","",""
"01/05/2018","22:26","218CR0000401","OPEN BUILDING","OPEN BUILDING","318 W PLATINUM","",""
"01/05/2018","22:31","218CR0000402","JUVENILE MISC","JUVENILE MISC","************","",""
"01/05/2018","22:39","218CR0000403","SUSPICIOUS ACTIVITY","SUSPICIOUS ACTIVITY","400 S CLARK ST JAMES ER","",""
"01/05/2018","22:43","218CR0000404","SUSPICIOUS ACTIVITY","SUSPICIOUS ACTIVITY","EXCELSIOR AND WOOLMAN","",""
"01/05/2018","23:01","218CR0000405","WELFARE CHECK","WELFARE CHECK","1131 MISSOURI","",""
"01/05/2018","23:23","218CR0000406","BUSINESS CHECK","BUSINESS CHECK","3700 HARRISON TOWN PUMP","",""
"01/05/2018","23:32","218CR0000407","ALARM - BURGLARY","ALARM - BURGLARY","************","",""
"01/06/2018","00:02","218CR0000408","DISTURBANCE","DISTURBANCE","910 EVANS #G5","",""
"01/06/2018","00:34","218CR0000409","VANDALISM/CRIMINAL MISCHIEF","CRIMINAL MISCHIEF","1259 E SECOND","",""
"01/06/2018","00:49","218CR0000410","VANDALISM/CRIMINAL MISCHIEF","VANDALISM/CRIMINAL MISCHIEF","3471 HANNIBAL","",""
"01/06/2018","00:58","218CR0000411","SUSPICIOUS ACTIVITY","SUSPICIOUS ACTIVITY","1407 HARRISON MT AFFORDABLE 4X","",""
"01/06/2018","01:21","218CR0000412","MEDICAL - EMERGENCY","MEDICAL - EMERGENCY","1048 S WYOMING","",""
"01/06/2018","01:30","218CR0000413","MEDICAL - EMERGENCY","MEDICAL - EMERGENCY","1324 HARRISON AVE BUS DEPOT","",""
"01/06/2018","01:32","218CR0000414","ALL OTHER","ASSAULT, SIMPLE","103 HAIL COLUMBIA GULCH RD","",""
"01/06/2018","02:18","218CR0000415","T/S","T/S","MONTANA AND PLATINUM","",""
"01/06/2018","02:19","218CR0000416","T/S","T/S @ 200 BLK S MONTANA","200 BLK S MONTANA","",""
"01/06/2018","02:41","218CR0000417","T/S","DRIVING W/OUT VALID D/L","3501 HARRISON THRIFTWAY","",""
"01/06/2018","02:48","218CR0000418","SUSPICIOUS ACTIVITY","SUSPICIOUS ACTIVITY","800 BLK ALLEY HORNET","",""
"01/06/2018","02:56","218CR0000419","ASSAULT","ASSAULT","************","",""
"01/06/2018","02:57","218CR0000420","BUSINESS CHECK","BUSINESS CHECK","531 S MONTANA TOWN PUMP","",""
"01/06/2018","03:03","218CR0000421","ACCIDENT-MHP","ACCIDENT-MHP","I15 MM 144 NB","",""
"01/06/2018","03:09","218CR0000422","PROWLER","PROWLER","2909 CARTER","",""
"01/06/2018","04:30","218CR0000423","UNWANTED PERSON","UNWANTED PERSON","************","",""
"01/06/2018","04:42","218CR0000424","SUSPICIOUS ACTIVITY","DUI DRUGS OR ALCOHOL","531 S MONTANA TOWN PUMP","ARREST(s) MADE",""
"01/06/2018","05:12","218CR0000425","BUSINESS CHECK","BUSINESS CHECK","3700 HARRISON TOWN PUMP","",""
"01/06/2018","05:15","218CR0000426","STOLEN VEHICLE","MOTOR VEHICLE THEFT","706 SILVERBOW HOMES","",""
"01/06/2018","05:23","218CR0000427","SUSPICIOUS ACTIVITY","SUSPICIOUS ACTIVITY","2100 CORNELL QUALITY INN","",""
"01/06/2018","06:02","218CR0000428","DISTURBANCE","DISTURBANCE","207 W PARK LINCOLN HOTEL","",""
"01/06/2018","07:27","218CR0000429","SUSPICIOUS ACTIVITY","SUSPICIOUS ACTIVITY","BROWNS GULCH RD","",""
"01/06/2018","08:05","218CR0000430","DISTURBANCE","DISTURBANCE","1205 S MONTANA","",""
"01/06/2018","09:00","218CR0000431","CIVIL PAPER SERVICE","CIVIL PAPER SERVICE","130 WALDRON DR","",""
"01/06/2018","09:06","218CR0000432","TRAFFIC","TRAFFIC","1121 W WOOLMAN","",""
"01/06/2018","09:45","218CR0000433","MEDICAL - EMERGENCY","MEDICAL - EMERGENCY","155 W QUARTZ","",""
"01/06/2018","10:20","218CR0000434","MEDICAL - EMERGENCY","MEDICAL - EMERGENCY","1205 S MONTANA","",""
"01/06/2018","10:52","218CR0000435","ROBBERY","ROBBERY","2950 BUSCH AVE","",""
"01/06/2018","11:11","218CR0000436","VANDALISM/CRIMINAL MISCHIEF","VANDALISM/CRIMINAL MISCHIEF","1051 S ROCKER RD","",""
"01/06/2018","11:36","218CR0000437","STOLEN VEHICLE","STOLEN VEHICLE","1925 DEWEY BLVD","",""
"01/06/2018","12:11","218CR0000438","SUICIDE ATTEMPT/THREAT","SUICIDE ATTEMPT/THREAT","************","",""
"01/06/2018","12:19","218CR0000439","HIT AND RUN","HIT AND RUN","246 E MERCURY ST","",""
"01/06/2018","12:22","218CR0000440","CIVIL PAPER SERVICE","CIVIL PAPER SERVICE","911 ANTIMONY","",""
"01/06/2018","12:28","218CR0000441","DISTURBANCE","PAROLE VIOLATION","62 W BROADWAY","ARREST(s) MADE",""
"01/06/2018","12:29","218CR0000442","CIVIL PAPER SERVICE","CIVIL PAPER SERVICE","209 S CRYSTAL ST","",""
"01/06/2018","12:33","218CR0000443","CIVIL PAPER SERVICE","CIVIL PAPER SERVICE","321 N JACKSON APT B","",""
"01/06/2018","12:45","218CR0000444","LITTERING","CRIMINAL CONTEMPT","MUSEUM WY / BLUEBIRD TRAIL","ARREST(s) MADE",""
"01/06/2018","12:46","218CR0000445","CIVIL PAPER SERVICE","CIVIL PAPER SERVICE","640 S CLARK","",""
"01/06/2018","12:55","218CR0000446","CIVIL PAPER SERVICE","CIVIL PAPER SERVICE","316 GRANITE MTN RD","",""
"01/06/2018","13:00","218CR0000447","CIVIL PAPER SERVICE","CIVIL PAPER SERVICE","717 S WASHINGTON","",""
"01/06/2018","13:01","218CR0000448","THEFT","THEFT","2103 S ROCKER","",""
"01/06/2018","13:09","218CR0000449","CIVIL PAPER SERVICE","CIVIL PAPER SERVICE","118 E ALUMINUM","",""
"01/06/2018","13:10","218CR0000450","PARKING COMPLAINT","PARKING COMPLAINT","1601 LOWELL","",""
"01/06/2018","13:17","218CR0000451","CIVIL PAPER SERVICE","CIVIL PAPER SERVICE","2206 ELM","",""
"01/06/2018","13:27","218CR0000452","CIVIL PAPER SERVICE","CIVIL PAPER SERVICE","910 EVANS APT C5","",""
"01/06/2018","13:28","218CR0000453","THEFT","THEFT, SHOPLIFT","3901 HARRISON AVE","",""
"01/06/2018","13:31","218CR0000454","VEHICLE INSPECTION","VEHICLE INSPECTION","3819 S WYOMING","",""
"01/06/2018","13:34","218CR0000455","CIVIL PAPER SERVICE","CIVIL PAPER SERVICE","1819 SCHLEY","",""
"01/06/2018","13:40","218CR0000456","CIVIL PAPER SERVICE","CIVIL PAPER SERVICE","3320 PAXSON","",""
"01/06/2018","14:08","218CR0000457","T/S","T/S","WHITE WY AND BURLINGTON","",""
"01/06/2018","14:16","218CR0000458","PARKING COMPLAINT","PARKING COMPLAINT","1109 W WOOLMAN ST","",""
"01/06/2018","14:18","218CR0000459","T/S","T/S","GRAND AVE AND THOMAS","",""
"01/06/2018","14:28","218CR0000460","T/S","T/S","CHICAGO AND SHEILDS","",""
"01/06/2018","14:39","218CR0000461","MEDICAL - EMERGENCY","MEDICAL - EMERGENCY","2074 FLORIDA AVE","",""
"01/06/2018","14:54","218CR0000462","SUSPICIOUS ACTIVITY","SUSPICIOUS ACTIVITY","331 W BOARDMAN","",""
"01/06/2018","14:57","218CR0000463","PARKING COMPLAINT","PARKING COMPLAINT","1122 ANTIMONY ST","",""
"01/06/2018","15:32","218CR0000464","SUSPICIOUS ACTIVITY","SUSPICIOUS ACTIVITY","EDDYS MOTEL","",""
"01/06/2018","15:55","218CR0000465","HIT AND RUN","FAIL TO ID, SELF AND VEHICLE","DALGREN AND PRINCETON","",""
"01/06/2018","16:00","218CR0000466","CITIZEN AID","CITIZEN AID","1960 HARRISON AVE TACO JOHNS","",""
"01/06/2018","16:05","218CR0000467","ALARM - BURGLARY","ALARM - BURGLARY","************","",""
"01/06/2018","16:14","218CR0000468","CITIZEN AID","CITIZEN AID","708 W PARK","",""
"01/06/2018","16:17","218CR0000469","ACCIDENT","ACCIDENT","MONTANA ST AND SECOND","",""
"01/06/2018","16:24","218CR0000470","UNWANTED PERSON","UNWANTED PERSON","************","",""
"01/06/2018","16:30","218CR0000471","MEDICAL - EMERGENCY","MEDICAL - EMERGENCY","2500 MASSACHUSETTS AVE","",""
"01/06/2018","16:36","218CR0000472","CIVIL STANDBY","CIVIL STANDBY","910 EVANS G5","",""
"01/06/2018","17:05","218CR0000473","CITIZEN AID","CITIZEN AID","50 W BROADWAY APT 206","",""
"01/06/2018","17:15","218CR0000474","RESTRAINING ORDER VIOLATION","VIOLATION OF PROTECTION ORDER","117 ONEILL","",""
"01/06/2018","17:22","218CR0000475","TRAFFIC HAZARD","TRAFFIC HAZARD","2929 HARRISON AVE","",""
"01/06/2018","17:25","218CR0000476","UNWANTED PERSON","UNWANTED PERSON","************","",""
"01/06/2018","17:34","218CR0000477","WELFARE CHECK","PROTECTIVE CUSTODY","1375 JOY LANE","",""
"01/06/2018","17:42","218CR0000478","UNWANTED PERSON","UNWANTED PERSON","************","",""
"01/06/2018","18:33","218CR0000479","DISTURBANCE","DISTURBANCE","400 S CLARK ST","",""
"01/06/2018","18:54","218CR0000480","RESTRAINING ORDER VIOLATION","VIOLATION OF PROTECTION ORDER","3400 HILL APT 1005","",""
"01/06/2018","18:56","218CR0000481","ALL OTHER","ALL OTHER","911 ANTIMONY ST","",""
"01/06/2018","19:11","218CR0000482","STOLEN VEHICLE","STOLEN VEHICLE","435 1/2 W SILVER","",""
"01/06/2018","19:22","218CR0000483","FIREWORKS COMPLAINT","FIREWORKS COMPLAINT","2000 BLK ARGYLE ST","",""
"01/06/2018","20:02","218CR0000484","SUICIDE ATTEMPT/THREAT","SUICIDE ATTEMPT/THREAT","************","",""
"01/06/2018","20:05","218CR0000485","UNWANTED PERSON","UNWANTED PERSON","************","",""
"01/06/2018","20:19","218CR0000486","MEDICAL - EMERGENCY","MEDICAL - EMERGENCY","1515 OREGON #502","",""
"01/06/2018","20:52","218CR0000487","SUSPICIOUS ACTIVITY","SUSPICIOUS ACTIVITY","2280 AMHERST AVE","",""
"01/06/2018","21:10","218CR0000488","T/S","T/S @ CONTINENTAL DR AND KEOKUK N","CONTINENTAL DR AND KEOKUK N","",""
"01/06/2018","22:03","218CR0000489","T/S","T/S @ DAKOTA AND FRONT","DAKOTA AND FRONT","",""
"01/06/2018","22:15","218CR0000490","MEDICAL - EMERGENCY","MEDICAL - EMERGENCY","2611 SILVERBOW BLVD","",""
"01/06/2018","22:21","218CR0000491","T/S","T/S @ HOLMES AND WESTERN","HOLMES AND WESTERN","",""
"01/06/2018","22:23","218CR0000492","T/S","T/S","SECOND ST AND ATLANTIC","",""
"01/06/2018","22:30","218CR0000493","TRAFFIC HAZARD","TRAFFIC HAZARD","3900 BLK HARRISON","",""
"01/06/2018","22:36","218CR0000494","T/S","T/S @ PLATINUM AND MONTANA","PLATINUM AND MONTANA","",""
"01/06/2018","22:57","218CR0000495","MEDICAL - EMERGENCY","MEDICAL - EMERGENCY","2550 MOULTON","",""
"01/06/2018","23:05","218CR0000496","T/S","T/S @ WYOMING AND FRONT","WYOMING AND FRONT","",""
"01/06/2018","23:10","218CR0000497","BUSINESS CHECK","BUSINESS CHECK","2711 HARRISON TOWN PUMP","",""
"01/06/2018","23:27","218CR0000498","JUVENILE MISC","JUVENILE MISC","************","",""
"01/06/2018","23:29","218CR0000499","T/S","T/S @ MADISON AND SHIELDS","MADISON AND SHIELDS","",""
"01/06/2018","23:34","218CR0000500","BUSINESS CHECK","BUSINESS CHECK","3700 HARRISON TOWN PUMP","",""
"01/06/2018","23:39","218CR0000501","BUSINESS CHECK","BUSINESS CHECK","531 S MONTANA TOWN PUMP","",""
"01/06/2018","23:43","218CR0000502","T/S","T/S @ 1100 BLK S MONTANA","1100 BLK S MONTANA","",""
"01/06/2018","23:46","218CR0000504","DISTURBANCE-NOISE","DISTURBANCE-NOISE","1325 W QUARTZ #202","",""
"01/06/2018","23:46","218CR0000503","MEDICAL - EMERGENCY","MEDICAL - EMERGENCY","1408 DEWEY BLVD","",""
"01/06/2018","23:50","218CR0000505","ACCIDENT- INJURY(MHP)","ACCIDENT- INJURY(MHP)","I15 MM 147 NB","",""
"01/07/2018","00:08","218CR0000506","T/S","T/S @ RUBY AND AGATE","RUBY AND AGATE","",""
"01/07/2018","00:21","218CR0000507","BUSINESS CHECK","BUSINESS CHECK","2325 HARRISON/LUCKY CHARM CASI","",""
"01/07/2018","00:21","218CR0000508","T/S","T/S @ MAIN AND ALUMINUM","MAIN AND ALUMINUM","",""
"01/07/2018","00:29","218CR0000509","BUSINESS CHECK","BUSINESS CHECK","1370 HARRISON TOWN PUMP","",""
"01/07/2018","00:30","218CR0000510","ANIMAL COMPLAINT","ANIMAL COMPLAINT","1039 W GRANITE","",""
"01/07/2018","00:32","218CR0000511","SUSPICIOUS ACTIVITY","SUSPICIOUS ACTIVITY","800 BLK S DAKOTA","",""
"01/07/2018","00:37","218CR0000512","T/S","NO LIABILITY INSURANCE IN EFF.","DAKOTA AND ALUMINUM","",""
"01/07/2018","00:47","218CR0000513","SUSPICIOUS ACTIVITY","SUSPICIOUS ACTIVITY","GEORGE AT CHAMBER OF COMMERCE","",""
"01/07/2018","00:47","218CR0000514","SUSPICIOUS ACTIVITY","SUSPICIOUS ACTIVITY","MADISON AND SHIELDS","",""
"01/07/2018","00:56","218CR0000515","DISTURBANCE-NOISE","DISTURBANCE-NOISE","HORNET ST AND EXCELSIOR AVE","",""
"01/07/2018","00:58","218CR0000516","T/S","T/S","PLATINUM AND COLORADO","",""
"01/07/2018","01:14","218CR0000517","T/S","T/S @ TECUMSEH AND MONTANA","TECUMSEH AND MONTANA","",""
"01/07/2018","01:30","218CR0000518","T/S","RED (STOP) LIGHT VIOLATION","FRONT AND MAIN","",""
"01/07/2018","01:55","218CR0000519","T/S","T/S","PARK AND WASHINGTON","",""
"01/07/2018","01:58","218CR0000520","T/S","T/S @ QUARTZ AND WASHINGTON","QUARTZ AND WASHINGTON","",""
"01/07/2018","02:11","218CR0000521","T/S","POSSESS ALCOHOL OR INTOXICANT","DEWEY BLVD AND KENNEDY AVE","ARREST(s) MADE",""
"01/07/2018","02:34","218CR0000522","SUSPICIOUS ACTIVITY","POSSESS DRUG PARAPHERNALIA","MADISON AND SHIELDS","ARREST(s) MADE",""
"01/07/2018","03:02","218CR0000523","SUSPICIOUS ACTIVITY","SUSPICIOUS ACTIVITY","CIVIC CENTER N PARKING LOT","",""
"01/07/2018","03:24","218CR0000524","T/S","T/S","3700 HARRISON TOWN PUMP","",""
"01/07/2018","04:09","218CR0000525","SUSPICIOUS ACTIVITY","SUSPICIOUS ACTIVITY","MADISON AND SHIELDS","",""
"01/07/2018","04:34","218CR0000526","MEDICAL - EMERGENCY","MEDICAL - EMERGENCY","907 S SILVERBOW HOMES","",""
"01/07/2018","05:10","218CR0000527","ACCIDENT","ACCIDENT","I15 MM 120","",""
"01/07/2018","05:49","218CR0000528","T/S","T/S","HARRISON AND MARCIA","",""
"01/07/2018","07:37","218CR0000529","SUSPICIOUS ACTIVITY","SUSPICIOUS ACTIVITY","CALHOUN AND MAIN","",""
"01/07/2018","08:06","218CR0000530","CIVIL PAPER SERVICE","CIVIL PAPER SERVICE","1004 WYOMING","",""
"01/07/2018","08:18","218CR0000531","CIVIL PAPER SERVICE","CIVIL PAPER SERVICE","1928 S JACKSON","",""
"01/07/2018","08:30","218CR0000532","SUSPICIOUS ACTIVITY","SUSPICIOUS ACTIVITY","455 CENTENNIAL AVE","",""
"01/07/2018","09:06","218CR0000533","CIVIL PAPER SERVICE","CIVIL PAPER SERVICE","5 TIMOTHY DR","",""
"01/07/2018","09:40","218CR0000534","CIVIL PAPER SERVICE","CIVIL PAPER SERVICE","1132 1/2 FARRELL ST","",""
"01/07/2018","10:01","218CR0000535","FRAUD","FRAUD","3636 HARRISON AVE","",""
"01/07/2018","10:51","218CR0000536","TRAFFIC HAZARD","TRAFFIC HAZARD","600 S EXCELSIOR","",""
"01/07/2018","12:00","218CR0000537","ANIMAL COMPLAINT","ANIMAL COMPLAINT","1690 HOBSON ST","",""
"01/07/2018","12:10","218CR0000538","DISTURBANCE","PFMA - MINOR INJ/PHYSICAL CONT","303 N WASHINGTON","ARREST(s) MADE",""
"01/07/2018","12:57","218CR0000539","THEFT","THEFT FROM MOTOR VEHICLE","1500 FAIRMONT RD","",""
"01/07/2018","13:19","218CR0000540","ASSIST OTHER AGENCY","ASSIST OTHER AGENCY","400 S CLARK ST","",""
"01/07/2018","13:20","218CR0000541","RESTRAINING ORDER VIOLATION","VIOLATION OF PROTECTION ORDER","117 ONEILL","",""
"01/07/2018","13:23","218CR0000542","WELFARE CHECK","WELFARE CHECK","2661 COLUSA","",""
"01/07/2018","13:28","218CR0000543","BURGLARY","BURGLARY, NON-RESIDENCE","1150 E FRONT","",""
"01/07/2018","13:44","218CR0000544","CITIZEN AID","CITIZEN AID","225 N ALASKA","",""
"01/07/2018","14:02","218CR0000545","HIT AND RUN","HIT AND RUN","1912 C STREET","",""
"01/07/2018","14:21","218CR0000546","INTOXICATED PERSON","INTOXICATED PERSON","1770 TEXAS CLARKS PARK","",""
"01/07/2018","14:55","218CR0000547","FOUND PROPERTY","FOUND PROPERTY","************","",""
"01/07/2018","15:17","218CR0000548","THEFT","THEFT, ALL OTHERS","1420 W ALUMINUM ST","",""
"01/07/2018","15:24","218CR0000549","SUSPICIOUS ACTIVITY","SUSPICIOUS ACTIVITY","1000 W GALENA","",""
"01/07/2018","15:39","218CR0000550","DISTURBANCE","DISTURBANCE","43 W LAPLATTE","",""
"01/07/2018","15:48","218CR0000551","T/S","T/S","HENRY ST AND BROADWAY ST","",""
"01/07/2018","15:58","218CR0000552","T/S","DRIVE WHILE SUSP. OR REVOKED","1600 BLK DEWEY BLVD","",""
"01/07/2018","16:18","218CR0000553","WELFARE CHECK","WELFARE CHECK","933 PLACER ST","",""
"01/07/2018","16:24","218CR0000554","VANDALISM/CRIMINAL MISCHIEF","CRIMINAL TRESPASS TO VEHICLE","701 HOBSON","",""
"01/07/2018","17:12","218CR0000555","ANIMAL COMPLAINT-BITE","ANIMAL COMPLAINT-BITE","WALKING TRAIL // COPPER ST","",""
"01/07/2018","17:33","218CR0000556","DISTURBANCE","DISTURBANCE","2825 FARRAGUT AVE APT D205","",""
"01/07/2018","17:44","218CR0000557","MEDICAL - EMERGENCY","MEDICAL - EMERGENCY","2017 MONROE","",""
"01/07/2018","17:59","218CR0000558","DRUGS","DRUGS","************","",""
"01/07/2018","18:03","218CR0000559","ABANDONED VEHICLE","ABANDONED VEHICLE","2017 MONROE","",""
"01/07/2018","18:56","218CR0000560","ATL","ATL","3755 HARRISON AVE","",""
"01/07/2018","18:59","218CR0000561","UNWANTED PERSON","DISORDERLY CONDUCT","2900 HARRISON AVE","ARREST(s) MADE",""
"01/07/2018","19:01","218CR0000562","FOUND PROPERTY","FOUND PROPERTY","************","",""
"01/07/2018","19:47","218CR0000563","FOUND PROPERTY","FOUND PROPERTY","************","",""
"01/07/2018","20:09","218CR0000564","THEFT","THEFT","1029 NEVADA","",""
"01/07/2018","20:21","218CR0000565","DISTURBANCE","DISTURBANCE","1900 MONROE","",""
"01/07/2018","20:28","218CR0000566","THEFT","THEFT","17 S WASHINGTON APT 2A","",""
"01/07/2018","22:14","218CR0000567","T/S","T/S","GRAND AND CAROLINA","",""
"01/07/2018","22:21","218CR0000568","T/S","T/S","1370 HARRISON AVE TOWN PUMP","",""
"01/07/2018","22:29","218CR0000569","SUSPICIOUS ACTIVITY","SUSPICIOUS ACTIVITY","901 E FRONT THRIFTWAY","",""
"01/07/2018","22:37","218CR0000570","FIRE- GAS ODOR","FIRE- GAS ODOR","800 UTAH CASAGRANDAS STEAKHOUS","",""
"01/07/2018","22:50","218CR0000571","ALARM - FIRE","ALARM - FIRE","1653 HARRISON PAIR A DICE","",""
"01/07/2018","22:54","218CR0000572","FRAUD","FRAUD","1370 HARRISON","",""
"01/07/2018","23:03","218CR0000573","T/S","T/S @ COBBAN AND ADAMS","COBBAN AND ADAMS","",""
"01/07/2018","23:27","218CR0000574","DISTURBANCE","DISTURBANCE","541 S MAIN ST","",""
"01/07/2018","23:42","218CR0000575","BUSINESS CHECK","BUSINESS CHECK","531 S MONTANA TOWN PUMP","",""
"01/07/2018","23:58","218CR0000576","BUSINESS CHECK","BUSINESS CHECK","3878 PAXSON AVE","",""
"01/08/2018","00:03","218CR0000577","T/S","T/S","PAXSON AND MEADOWLARK","",""
"01/08/2018","00:14","218CR0000578","SUSPICIOUS ACTIVITY","SUSPICIOUS ACTIVITY","600 BLK S IDAHO","",""
"01/08/2018","00:24","218CR0000579","ALL OTHER","ALL OTHER","1370 HARRISON TOWN PUMP","",""
"01/08/2018","00:43","218CR0000580","SUSPICIOUS ACTIVITY","SUSPICIOUS ACTIVITY","1324 HARRISON AVE BUS DEPOT","",""
"01/08/2018","01:11","218CR0000581","MEDICAL - EMERGENCY","MEDICAL - EMERGENCY","402 DRIFTER LN","",""
"01/08/2018","01:30","218CR0000582","ALARM - BURGLARY","ALARM - BURGLARY","************","",""
"01/08/2018","02:10","218CR0000583","SUSPICIOUS ACTIVITY","SUSPICIOUS ACTIVITY","600 BLK COLORADO","",""
"01/08/2018","02:27","218CR0000584","BUSINESS CHECK","BUSINESS CHECK","531 S MONTANA TOWN PUMP","",""
"01/08/2018","02:40","218CR0000585","CHILD ABUSE","CHILD ABUSE","************","",""
"01/08/2018","04:19","218CR0000586","THEFT","THEFT","2711 HARRISON AVE","",""
"01/08/2018","04:59","218CR0000587","DISTURBANCE-NOISE","DISTURBANCE-NOISE","1905 SILVERBOW HOMES","",""
"01/08/2018","05:18","218CR0000588","TRAFFIC HAZARD","TRAFFIC HAZARD","A ST AND HARRISON","",""
"01/08/2018","05:44","218CR0000589","THEFT","THEFT","1324 HARRISON AVE BUS DEPOT","",""
"01/08/2018","06:00","218CR0000590","SUSPICIOUS ACTIVITY","SUSPICIOUS ACTIVITY","MONTANA AND BENNETT","",""
 

Subcategories

Sunday the 21st. Affiliate Marketing.
Copyright 2012

©